Location: Corralito
(14.1667°N, 87.1833°W)
Time: 22:57:47
(UTC+00:00)

Intelsat 5-1 Rocket - Pass Details

Date: 07 June 2020
Orbit: 309 x 7612 km, 23.9° (Epoch: 05 July)

Event Time Altitude Azimuth Distance (km) Brightness Sun altitude
Rises 02:13:21 0° 290° (WNW) 2,086 6.0 -25.8°
Reaches altitude 10° 02:15:54 10° 323° (NW) 1,179 4.4 -26.4°
Enters shadow 02:16:03 11° 327° (NNW) 1,147 4.3 -26.4°
